| time (UTC) | temp F | wind direction | speed MPH | gust MPH | rain 1hr in | rain 24hr in | rain mn in | humidity % | barometer mb |
| 20260503213054 | 65 | 217 | 2.0 | 13.0 | 0.00 | 0.01 | 0.01 | 45 | 1013.0 |
| 20260503211556 | 65 | 259 | 2.0 | 13.0 | 0.00 | 0.01 | 0.01 | 46 | 1013.6 |
| 20260503210054 | 65 | 271 | 3.0 | 14.0 | 0.00 | 0.01 | 0.01 | 47 | 1013.3 |
| 20260503204559 | 65 | 228 | 1.0 | 11.0 | 0.00 | 0.01 | 0.01 | 47 | 1013.6 |
| 20260503203054 | 64 | 217 | 3.0 | 14.0 | 0.00 | 0.01 | 0.01 | 46 | 1014.0 |
| 20260503201557 | 64 | 246 | 1.0 | 13.0 | 0.00 | 0.01 | 0.01 | 44 | 1014.3 |
| 20260503200101 | 64 | 214 | 5.0 | 17.0 | 0.00 | 0.01 | 0.01 | 44 | 1014.7 |
| 20260503194600 | 63 | 0 | 0.0 | 13.0 | 0.00 | 0.01 | 0.01 | 46 | 1015.0 |
| 20260503193111 | 63 | 274 | 1.0 | 13.0 | 0.00 | 0.01 | 0.01 | 45 | 1015.2 |
| 20260503191559 | 63 | 0 | 0.0 | 10.0 | 0.00 | 0.01 | 0.01 | 45 | 1015.7 |
| 20260503190109 | 62 | 245 | 1.0 | 13.0 | 0.00 | 0.01 | 0.01 | 46 | 1015.9 |
| 20260503184601 | 63 | 226 | 4.0 | 10.0 | 0.00 | 0.01 | 0.01 | 45 | 1016.2 |
| 20260503183110 | 62 | 227 | 3.0 | 13.0 | 0.00 | 0.01 | 0.01 | 44 | 1016.3 |
| 20260503181558 | 62 | 212 | 2.0 | 11.0 | 0.00 | 0.01 | 0.01 | 44 | 1016.6 |
| 20260503174558 | 61 | 252 | 2.0 | 10.0 | 0.00 | 0.01 | 0.01 | 46 | 1017.1 |
| 20260503173112 | 61 | 221 | 0.0 | 7.0 | 0.00 | 0.01 | 0.01 | 48 | 1017.3 |
| 20260503171558 | 60 | 0 | 0.0 | 7.0 | 0.00 | 0.01 | 0.01 | 42 | 1017.7 |
| 20260503150111 | 56 | 0 | 0.0 | 4.0 | 0.00 | 0.01 | 0.01 | 55 | 1018.8 |
| 20260503140119 | 50 | 0 | 0.0 | 1.0 | 0.01 | 0.01 | 0.01 | 76 | 1018.8 |
| 20260503130104 | 39 | 0 | 0.0 | 0.0 | 0.00 | 0.00 | 0.00 | 97 | 1018.9 |
| 20260503110104 | 29 | 0 | 0.0 | 0.0 | 0.00 | 0.00 | 0.00 | 96 | 1018.3 |
| 20260503100107 | 29 | 0 | 0.0 | 0.0 | 0.00 | 0.00 | 0.00 | 95 | 1018.2 |
| 20260503081611 | 30 | 0 | 0.0 | 0.0 | 0.00 | 0.00 | 0.00 | 95 | 1018.0 |
| 20260503071608 | 31 | 0 | 0.0 | 0.0 | 0.00 | 0.00 | 0.00 | 94 | 1017.7 |
| 20260503070103 | 32 | 0 | 0.0 | 0.0 | 0.00 | 0.00 | 0.00 | 94 | 1017.7 |
| 20260503060113 | 33 | 0 | 0.0 | 0.0 | 0.00 | 0.00 | 0.00 | 93 | 1017.9 |
| 20260503054558 | 34 | 0 | 0.0 | 0.0 | 0.00 | 0.00 | 0.00 | 94 | 1017.9 |
| 20260503053101 | 34 | 0 | 0.0 | 0.0 | 0.00 | 0.00 | 0.00 | 94 | 1018.0 |
| 20260503051608 | 34 | 0 | 0.0 | 0.0 | 0.00 | 0.00 | 0.00 | 94 | 1017.9 |
| 20260503044558 | 34 | 0 | 0.0 | 0.0 | 0.00 | 0.00 | 0.00 | 93 | 1017.9 |
| 20260503043058 | 35 | 0 | 0.0 | 0.0 | 0.00 | 0.00 | 0.00 | 92 | 1017.9 |
| 20260503041558 | 36 | 0 | 0.0 | 0.0 | 0.00 | 0.00 | 0.00 | 92 | 1017.8 |
| 20260503040058 | 36 | 0 | 0.0 | 0.0 | 0.00 | 0.00 | 0.00 | 92 | 1017.7 |
| 20260503034556 | 37 | 0 | 0.0 | 0.0 | 0.00 | 0.00 | 0.00 | 92 | 1017.7 |
| 20260503033058 | 37 | 0 | 0.0 | 0.0 | 0.00 | 0.00 | 0.00 | 91 | 1017.8 |
| 20260503031600 | 38 | 0 | 0.0 | 0.0 | 0.00 | 0.00 | 0.00 | 91 | 1017.6 |
| 20260503030058 | 38 | 0 | 0.0 | 0.0 | 0.00 | 0.00 | 0.00 | 90 | 1017.6 |
| 20260503024602 | 38 | 0 | 0.0 | 0.0 | 0.00 | 0.00 | 0.00 | 88 | 1017.5 |
| 20260503023101 | 40 | 0 | 0.0 | 0.0 | 0.00 | 0.00 | 0.00 | 87 | 1017.4 |
| 20260503021600 | 40 | 0 | 0.0 | 0.0 | 0.00 | 0.00 | 0.00 | 86 | 1017.2 |
| 20260503020059 | 42 | 0 | 0.0 | 0.0 | 0.00 | 0.00 | 0.00 | 85 | 1017.1 |
| 20260503014623 | 43 | 0 | 0.0 | 0.0 | 0.00 | 0.00 | 0.00 | 83 | 1017.0 |
| 20260503013101 | 44 | 0 | 0.0 | 0.0 | 0.00 | 0.00 | 0.00 | 80 | 1016.8 |
| 20260503011616 | 45 | 0 | 0.0 | 0.0 | 0.00 | 0.00 | 0.00 | 78 | 1016.6 |
| 20260503010059 | 46 | 0 | 0.0 | 0.0 | 0.00 | 0.00 | 0.00 | 77 | 1016.5 |
| 20260503004605 | 47 | 0 | 0.0 | 0.0 | 0.00 | 0.00 | 0.00 | 75 | 1016.4 |
| 20260503003058 | 50 | 0 | 0.0 | 0.0 | 0.00 | 0.00 | 0.00 | 70 | 1016.2 |
| 20260503001557 | 52 | 0 | 0.0 | 0.0 | 0.00 | 0.00 | 0.00 | 64 | 1016.1 |
| 20260503000054 | 54 | 0 | 0.0 | 0.0 | 0.00 | 0.00 | 0.00 | 59 | 1015.9 |
| 20260502234556 | 55 | 0 | 0.0 | 0.0 | 0.00 | 0.00 | 0.00 | 58 | 1015.7 |
| 20260502233056 | 54 | 0 | 0.0 | 1.0 | 0.00 | 0.00 | 0.00 | 59 | 1015.8 |
| 20260502231555 | 54 | 0 | 0.0 | 0.0 | 0.00 | 0.00 | 0.00 | 59 | 1015.6 |
| 20260502230058 | 55 | 0 | 0.0 | 0.0 | 0.00 | 0.00 | 0.00 | 58 | 1015.6 |
| 20260502224608 | 55 | 0 | 0.0 | 0.0 | 0.00 | 0.00 | 0.00 | 61 | 1015.6 |
| 20260502223056 | 55 | 0 | 0.0 | 0.0 | 0.00 | 0.00 | 0.00 | 59 | 1015.7 |
| 20260502221558 | 54 | 0 | 0.0 | 0.0 | 0.00 | 0.00 | 0.00 | 60 | 1015.6 |
| 20260502220055 | 54 | 0 | 0.0 | 1.0 | 0.00 | 0.00 | 0.00 | 60 | 1015.7 |
| 20260502214554 | 55 | 0 | 0.0 | 0.0 | 0.00 | 0.00 | 0.00 | 59 | 1015.6 |